格洛纳斯M-729 COSMOS 2449 [GLONASS-M]

导读 | 星芒AI

COSMOS 2449(GLONASS-M)是俄罗斯GLONASS卫星导航系统的一部分,于2007年10月22日由联盟号火箭发射。该卫星属于GLONASS-M系列,设计用于提供高精度的全球定位和导航服务。它运行在中地球轨道,轨道高度约19,100公里,倾角约64.8度。COSMOS 2449搭载了改进的导航载荷和更稳定的原子钟,提升了系统的整体精度和可靠性。作为GLONASS星座的重要成员,它支持俄罗斯及全球用户的定位、导航和时间同步需求。

基本信息
目录编号:
33467
目录名称:
COSMOS 2449 (GLONASS)
国际标识:
2008-067B
轨道中心:
EARTH
卫星名称:
格洛纳斯M-729
卫星全名:
格洛纳斯M-729 COSMOS 2449 [GLONASS-M]
卫星状态:
在轨 (已飞行6152 天)
发射日期:
2008-12-25 UTC
国别 :
俄罗斯(独联体) (CIS)
星等 :
--
轨道信息
数据来源 国际轨道数据
星历时间: 2025-10-26T01:15:01+0800
3天前
查看轨道信息
半长轴: 25508.424km
偏心率: 0.0032713
轨道倾角: 64.669°
近地点辐角 235.155°
升交点赤经 77.330°
平近点角 124.529°
近地点: 19046.843km
远地点: 19213.735km
周期: 675.749分钟
每日圈数: 2.13097
详细信息
平衡模式:
三轴稳定
覆盖范围:
全球
运营商:
列舍特涅夫卫星信息系统
运营商所在国:
俄罗斯
制造商(研发单位):
列舍特涅夫卫星信息系统
制造商所在国:
俄罗斯
使用方式:
暂无
卫星简介
格洛纳斯(GLONASS )是苏联/俄罗斯研制卫星导航系统。标准配置为24颗卫星,其中18颗卫星就能保证该系统为俄罗斯境内用户提供全部服务。该卫星已退役。
2D轨道图
3D轨道图
轨道高度分析图
轨道倾角分析图
轨道综合分析图
查看轨道综合分析图